Flag for Germany Weather past 2 weeks in Rüsselsheim, Hesse, Germany

Now
33 °F

Passing clouds.


Feels Like: 26 °F
Forecast: 34 / 39 °F
Wind: 7 mph from Southwest

Location: Wiesbaden Airport

Current Time: Jan 29, 2015 at 8:05:55 AM

Latest Report: Jan 29, 2015 at 6:58 AM


Visibility: N/A

Pressure: 29.48 "Hg

Humidity: 86%

Dew point: 29 °F

Location of RüsselsheimLocation

Historic Weather in Rüsselsheim — Graph

°F

Rüsselsheim temperature yesterday

Maximum temperature yesterday: 41 °F (at 6:58 PM)
Minimum temperature yesterday: 35 °F (at 1:58 AM)
Average temperature yesterday: 38 °F

Past Weeks' High & Low Weather Summary

 TemperatureHumidityPressure
High52 °F (Jan 15, 8:01 PM)100% (Jan 16, 12:59 PM)30.46 "Hg (Jan 16, 12:59 PM)
Low27 °F (Jan 24, 1:58 AM)62% (Jan 15, 8:01 PM)29.48 "Hg (Jan 29, 6:58 AM)
Average36 °F90%30.02 "Hg
* Reported Jan 14 6:58 AM — Jan 29 6:58 AM, Rüsselsheim, Weather by CustomWeather, © 2014

Note: Actual official high and low records may vary slightly from our data, if they occured in-between our weather recording intervals... More about our weather records

Advertising

Rüsselsheim weather history for previous 24 hours

 ConditionsComfort  
Time TempWeatherWind HumidityBarometerVisibility
6:58 AM
Jan 29
33 °FPassing clouds.7 mph86%29.48 "HgN/A
5:58 AM32 °FPassing clouds.3 mph87%29.49 "HgN/A
4:58 AM32 °FClear.7 mph84%29.52 "HgN/A
3:58 AM34 °FClear.15 mph81%29.53 "HgN/A
2:58 AM36 °FPassing clouds.13 mph75%29.53 "HgN/A
1:58 AM34 °FPassing clouds.12 mph85%29.54 "HgN/A
12:58 AM34 °FClear.5 mph93%29.54 "HgN/A
11:58 PM
Jan 28
36 °FPassing clouds.7 mph84%29.54 "HgN/A
10:58 PM36 °FMostly cloudy.8 mph82%29.55 "HgN/A
9:58 PM39 °FLight rain. Mostly cloudy.10 mph93%29.53 "HgN/A
8:58 PM40 °FLight rain. Low clouds.14 mph90%29.50 "HgN/A
8:02 PM39 °FLight rain. Low clouds.15 mph93%29.53 "HgN/A
7:58 PM39 °FLight rain. Low clouds.13 mph93%29.55 "HgN/A
6:58 PM41 °FLight rain. Low clouds.16 mph82%29.59 "HgN/A
6:00 PM41 °FLight rain. Overcast.22 mph81%29.62 "HgN/A
4:58 PM41 °FOvercast.17 mph78%29.68 "HgN/A
3:58 PM41 °FMostly cloudy.16 mph81%29.73 "HgN/A
2:58 PM40 °FOvercast.15 mph83%29.79 "HgN/A
1:58 PM40 °FMostly cloudy.18 mph86%29.85 "HgN/A
1:02 PM39 °FOvercast.16 mph87%29.88 "HgN/A
12:58 PM40 °FOvercast.16 mph86%29.90 "HgN/A
11:58 AM39 °FOvercast.13 mph88%29.96 "HgN/A
10:58 AM39 °FOvercast.7 mph87%30.01 "HgN/A
10:04 AM37 °FOvercast.10 mph93%30.01 "HgN/A
9:58 AM38 °FMostly cloudy.13 mph92%30.04 "HgN/A
8:58 AM37 °FOvercast.8 mph93%30.07 "HgN/A
Weather by CustomWeather, © 2014

See weather overviewHow to use our weather pages